Dati Storici

Data ora Umidita' aria (%) Temperatura aria (°C) Rad globale (W/m²) Gonioanemometro (°) Tacoanemometro (m/s) Pioggia (mm)
10-11-2012 16:30 81.2 % 12.072 39.845 7.84 2.832 0
10-11-2012 16:20 80.6 % 12.096 32.385 44.51 5.078 0
10-11-2012 16:10 80.3 % 12.165 39.233 13.595 1.501 0
10-11-2012 16:00 80 % 12.188 43.842 32.32 1.52 0
10-11-2012 15:50 79.7 % 12.225 45.926 42.426 0.77 0
10-11-2012 15:40 79.5 % 12.187 65.882 40.816 1.486 0
10-11-2012 15:30 79.2 % 12.162 49.774 28.608 2.157 0
10-11-2012 15:20 78.9 % 12.217 49.812 15.06 2.693 0
10-11-2012 15:10 79 % 12.208 56.491 18.629 1.54 0
10-11-2012 15:00 79.2 % 12.148 79.387 55.542 2.259 0
10-11-2012 14:50 79.4 % 12.062 60.289 57.462 1.21 0
10-11-2012 14:40 79.1 % 11.947 53.794 52.145 2.585 0
10-11-2012 14:30 78.7 % 11.952 78.782 354.688 1.286 0
10-11-2012 14:20 78.5 % 11.865 85.517 25.731 3.051 0
10-11-2012 14:10 78.9 % 11.872 119.176 6.54 2.284 0
10-11-2012 14:00 78.6 % 11.681 85.466 15.097 2.05 0
10-11-2012 13:50 78.1 % 11.59 97.557 25.779 2.685 0
10-11-2012 13:40 78.2 % 11.47 104.569 107.176 0.945 0
10-11-2012 13:30 78.4 % 11.472 109.937 18.52 1.608 0
10-11-2012 13:20 78.1 % 11.258 152.713 31.932 3.582 0

I dati sono presentati in modo automatico a scopo informativo. In seguito a verifica i dati possono subire modifiche o essere invalidati e non riportati negli archivi definitivi.